Погода в Иртышске

Погода в Иртышске : погода сейчас, прогноз погоды и архив. Всё, что Вы хотите узнать о погоде в Иртышске!

Хотите узнать прогноз погоды в Иртышске? Тогда Вам сюда: Погода в Иртышске

Поиск расширенной информации на нашем сайте:

Полезная информация: Сертификат качества труба стальная 325.

Другие новости

Новости СМИ2

Главная страница сайта

Новости сайта

02.10.2013

Напоминаем, что на нашем новом сайте вы можете получить высокодетализированные прогнозы погоды по пунктам России, СНГ и мира (включающие важные для авиации метеовеличины, такие как направление и скорость ветра, видимость, явления погоды, количество и форма облачности, нижняя и верхняя граница облачности), а также ознакомиться с разнообразными материалами по авиационной метеорологии и подборкой полезных ссылок на эту тему.

Сайт Метеоцентр.Азия посвящён разработке технологий оптимизации авиаметеорологического обслуживания, включая проектирование и перспективное создание нескольких автоматизированных авиаметеорологических систем:
- система выпуска высокодетальных прогностических карт явлений погоды для нижнего воздушного пространства по России и ближнему зарубежью;
- система верификации прогнозов TAF (выпускаемых синоптиками официальных АМСГ РФ и ближнего зарубежья) и AUTOTAF (выпускаемых сайтом Метеоцентр.Азия) - выявление ошибок, онлайн-сопоставление с фактической погодой METAR, автоматическое внесение коррективов в прогнозы при резком отклонении фактической погоды от прогноза, подсчёт оправдываемости прогнозов по элементам и в целом;
- система обработки, анализа и отображения авиаметеорологической информации для применения провайдерами метеорологической информации.

Рекомендуем: Описание автозапчасти для mercedes у нас на сайте.

Погода в Иртышске - сегодня

Время (UTC), дата Ветер
(°,м/с) 
Видим.   Явления Облачность Т
(°С)
Тd
(°С)
f(%) Тe
(°С)
Pmin
(гПа)
dP
(гПа)
Po
(мм)
O2
(г/м3)
Тmin Tmax R s Состояние
почвы
15 25.02.17 200 (Ю) н/о    10/10 600 м 
[Sc]
-4.4 -5.7 91 -6  1020.9  0.8  757  310    -4.3       
18 25.02.17 220 (ЮЗ) н/о    10/10 600 м 
[Sc]
-5.1 -6.1 93 -5  1021.4  0.5  757  311    -4.3       
21 25.02.17 180 (Ю) н/о    10/10 600 м 
[Sc]
-4.2 -5.1 93 -7  1022.4  1.1  758  311           
00 26.02.17 210 (ЮЗ) н/о    10/10 600 м 
[Sc]
-3 -3.7 95 -5  1023.1  0.7  758  309           
03 26.02.17 200 (Ю) 10 км    10/10 600 м 
[Sc]
-1.8 -2.6 94 -5  1024.4  1.4  759  308        19  равномерный
сухой снег
100% 
06 26.02.17 190 (Ю) 10 км    6/0 верхняя 
[Ci fib]
-1.2 -3.2 86 -5  1024.8  0.3  760  308  -5.3         
09 26.02.17 180 (Ю) 10 км    10/0 средняя 
[As op]
-0.2 -2.6 84 -4  1023.9  -0.8  759  306           
12 26.02.17 190 (Ю) 10 км  слаб. дождь  10/10 300 м 
[Ns]
+0.1 -0.5 96 -4  1023  -0.8  758  306           
15 26.02.17 210 (ЮЗ) н/о  слаб. дождь  10/10 300 м 
[Ns]
+0.4 -0.2 96 -4  1023.6  0.6  759  305    +0.5  0.7     
18 26.02.17 230 (ЮЗ) н/о  слаб. дождь  10/10 300 м 
[Ns]
+1 +0.5 96 -2  1023.7  0.1  759  305    +0.5  0.7     
21 26.02.17 210 (ЮЗ) н/о  {дождь}  10/10 600 м 
[Sc]
+0 -0.6 96 -4  1024.9  1.1  760  306           
00 27.02.17 190 (Ю) н/о  {дождь}  10/10 600 м 
[Sc]
-0.6 -1.8 92 -3  1024.4  -0.5  759  307           
03 27.02.17 150 (ЮВ) 10 км    8/8 600 м 
[Sc]
-3 -4.7 88 -7  1024.7  0.2  760  310      17  равномерный
сухой снег
100% 
06 27.02.17 140 (ЮВ) 10 км    8/6 600 м средняя 
[Sc|Ac trans]
-2.6 -6.7 73 -7  1023.5  -1.2  759  309  -3.2       
09 27.02.17 160 (Ю) 10 км    8/8 600 м 
[Sc]
+0.9 -4.1 69 -3  1021.6  -1.7  757  305           
12 27.02.17 150 (ЮВ) 10{16}  10 км    10/10 600 м 
[Sc]
+0.8 -3.2 75 -4  1022.1  0.5  758  305           
15 27.02.17 210 (ЮЗ) 10{16}  н/о    10/10 600 м 
[Sc]
+0 -2.1 86 -5  1023.3  1.2  759  306    +1       
18 27.02.17 240 (ЮЗ) 7{15}  н/о    10/10 600 м 
[Sc]
-2.2 -5.5 78 -7  1026.1  2.6  761  310    +1       
21 27.02.17 230 (ЮЗ) н/о    10/10 600 м 
[Sc]
-3.6 -7.3 75 -6  1028  1.8  762  312           
00 28.02.17 180 (Ю) н/о    ясно 
-5.2 -8.1 80 -5  1029  0.9  763  314           
03 28.02.17 110 (В) 10 км    8/8 600 м 
[Sc]
-6.2 -9.4 78 -6  1029.5  0.5  763  316        16  равномерный
сухой снег
100% 
06 28.02.17 150 (ЮВ) 10 км    10/10 600 м 
[Sc]
-2.4 -6.1 76 -3  1029.4  763  311  -6.3         
09 28.02.17 170 (Ю) 10 км    9/6 600 м средняя 
[Sc|Ac trans]
-1.7 -5.9 73 -1  1028.7  -0.6  763  310           
12 28.02.17 140 (ЮВ) 10 км    10/10 600 м 
[Sc]
-1.8 -4.9 79 -1  1027.6  -1.1  762  310           
15 28.02.17 тихо ()   н/о    10/10 600 м 
[Sc]
-2.8 -4.5 88 -3  1026.5  -1.1  761  310    -1.6       
Время (UTC), дата Ветер
(°,м/с) 
Видим.   Явления Облачность Т
(°С)
Тd
(°С)
f(%) Тe
(°С)
Pmin
(гПа)
dP
(гПа)
Po
(мм)
O2
(г/м3)
Тmin Tmax R s Состояние
почвы

Для получения пояснительной информации подведите курсор к названию столбца.

ПОГОДА в Иртышске - архив

Всё, что Вы хотите узнать о погоде в Иртышске - удобно и подробно!

Выберите нужную дату (начиная с 1 января 2015* года) и нажмите кнопку "Найти".
Будут отображены архивные сводки погоды по пункту Иртышск, начиная с указанной даты.


Отображать данные в формате CSV (для использования в таблицах Excel)


Внимание! Наш архив погоды предназначен исключительно для личного некоммерческого использования в познавательных целях. Если Вам необходимы официальные справки о состоянии погоды (для производственных, юридических, коммерческих и т.п. целей), обращайтесь в органы Росгидромета.

*Примечание: данная дата относится к архиву по метеостанциям СССР (Россия, СНГ, Балтия).
Архив по метеостанциям Зарубежной Европы и Азии (кроме Китая) хранится 10 дней, по другим регионам земного шара (Китай, Африка, Америка, Австралия, Океания) - 1 день.

Иртышск - район местоположения метеостанции


Название, широта, долгота, высота метеостанции:
Иртышск 53.3°ш. 75.4°д. 94 м над ур. моря [Казахстан]

Дополнительная информация

В oтличие oт бoльшинства пoгoдных сайтoв мы публикуем пoдрoбную метеoинфoрмацию в детальнoм прoфессиoнальнoм фoрмате.

Характеристики температуры и влажнoсти вoздуха измеряются на высoте 2 м в тени вдали oт зданий и деревьев.
Скoрoсть ветра измеряется на высoте 10 м (на урoвне рoста челoвека скoрoсть ветра ниже в 1.5-2 раза). Если метеoстанция нахoдится в гoрoде или в лесу, тo скoрoсть ветра занижена на 2-4 м/с пo сравнению с oткрытым местoм. Скoрoсть ветра над акватoриями крупных рек и oзёр, а также на вершинах хoлмoв на 2-5 м/с выше, чем в oбычных услoвиях.
Атмoсфернoе давление в разных тoчках местнoсти мoжет значительнo oтличаться oт давления на метеoстанции, в зависимoсти oт услoвий рельефа (при пoдъёме на 10 м давление пoнижается примернo на 1 мм рт.ст.).